This is the latest recevied weather packets stored in our database for station/object KD7AWQ. If no packets are shown the sender has not sent any weather packets the latest 10 day(s).
| Time | Temp. | Humidity | Pressure | Rain* | Wind** | Luminosity | Snow |
|---|---|---|---|---|---|---|---|
| 1788104197 | 25° C | 52% | 1189.7 hPa | 0 mm | - | 439 W/m² | - |
| 1788103897 | 25.56° C | 53% | 1189.9 hPa | 0 mm | - | 330 W/m² | - |
| 1788103595 | 26.11° C | 47% | 1190 hPa | 0 mm | - | 284 W/m² | - |
| 1788103295 | 26.11° C | 46% | 1189.7 hPa | 0 mm | - | 271 W/m² | - |
| 1788103000 | 25.56° C | 47% | 1189.8 hPa | 0 mm | - | 248 W/m² | - |
| 1788102690 | 25.56° C | 47% | 1189.7 hPa | 0 mm | - | 237 W/m² | - |
| 1788102384 | 25.56° C | 49% | 1189.6 hPa | 0 mm | - | 214 W/m² | - |
| 1788102079 | 25.56° C | 49% | 1189.8 hPa | 0 mm | - | 172 W/m² | - |
| 1788101779 | 25° C | 48% | 1189.7 hPa | 0 mm | - | 141 W/m² | - |
| 1788101474 | 25° C | 49% | 1189.9 hPa | 0 mm | - | 125 W/m² | - |
| 1788101169 | 24.44° C | 50% | 1189.8 hPa | 0 mm | - | 113 W/m² | - |
| 1788100865 | 24.44° C | 52% | 1189.7 hPa | 0 mm | - | 105 W/m² | - |
| 1788100561 | 24.44° C | 52% | 1189.7 hPa | 0 mm | - | 100 W/m² | - |
| 1788100259 | 24.44° C | 53% | 1190 hPa | 0 mm | - | 93 W/m² | - |
| 1788099955 | 24.44° C | 52% | 1190 hPa | 0 mm | - | 92 W/m² | - |
| 1788099649 | 24.44° C | 52% | 1190.3 hPa | 0 mm | - | 90 W/m² | - |
| 1788099345 | 24.44° C | 53% | 1190.1 hPa | 0 mm | - | 90 W/m² | - |
| 1788099045 | 23.89° C | 53% | 1190 hPa | 0 mm | - | 93 W/m² | - |
| 1788098739 | 23.89° C | 53% | 1190 hPa | 0 mm | - | 93 W/m² | - |
| 1788098435 | 23.89° C | 53% | 1189.9 hPa | 0 mm | - | 84 W/m² | - |
| 1788098130 | 23.89° C | 53% | 1189.8 hPa | 0 mm | - | 76 W/m² | - |
| 1788097825 | 23.89° C | 53% | 1189.7 hPa | 0 mm | - | 68 W/m² | - |
| 1788097521 | 23.89° C | 53% | 1189.6 hPa | 0 mm | - | 56 W/m² | - |
| 1788097216 | 23.89° C | 52% | 1189.7 hPa | 0 mm | - | 45 W/m² | - |
| 1788096912 | 23.89° C | 52% | 1190 hPa | 0 mm | - | 35 W/m² | - |
* Rain latest hour (hover to see other rain measurements)
** Current wind speed in m/s (hover to see current wind gust speed)